Regional Weather Roundup
Issued by NWS Raleigh/Durham, NC

Home | Current Version | Previous Version | Text Only | Print | Product List | Glossary On
Versions: 1 2 3 4 5 6 7 8 9 10 11 12 13 14 15 16 17 18 19 20 21 22 23 24 25 26 27 28 29 30 31 32 33 34 35 36 37 38 39 40 41 42 43 44 45 46 47 48 49 50
000
ASUS42 KRAH 250210
RWRRAH
NORTH CAROLINA WEATHER ROUNDUP
NATIONAL WEATHER SERVICE RALEIGH NC
1000 PM EDT THU JUL 24 2014

NOTE: "FAIR" INDICATES FEW OR NO CLOUDS BELOW 12,000 FEET WITH NO
SIGNIFICANT WEATHER AND/OR OBSTRUCTIONS TO VISIBILITY.

NCZ001-053-055-056-065-067-250300-
WESTERN NORTH CAROLINA

CITY           SKY/WX    TMP DP  RH WIND       PRES   REMARKS
ASHEVILLE      PTCLDY    71  65  81 N6        30.02R
JEFFERSON      PTCLDY    64  61  89 NE3       30.07R
MORGANTON      MOCLDY    70  70  98 CALM      30.02S
HICKORY        MOCLDY    71  69  93 N3        29.96S
RUTHERFORDTON  PTCLDY    76  66  71 NW6       29.96S
MOUNT AIRY     CLOUDY    75  69  82 CALM      29.98R
BOONE          MOCLDY    63  63  99 CALM      30.08R
$$

NCZ021-022-025-041-071-084-088-250300-
CENTRAL NORTH CAROLINA

CITY           SKY/WX    TMP DP  RH WIND       PRES   REMARKS
CHARLOTTE      MOCLDY    72  69  90 CALM      29.95R
GREENSBORO     MOCLDY    70  66  88 NE13      29.97R
WINSTON-SALEM  MOCLDY    71  68  90 NE5       29.99R
RALEIGH-DURHAM TSTM      70  68  93 E8        29.93F
FORT BRAGG     MOCLDY    77  73  88 NE13G21   29.92R
FAYETTEVILLE   PTCLDY    78  74  87 N8        29.90R
BURLINGTON     CLOUDY    69  66  90 NE5       29.95S
LAURINBURG     PTCLDY    75  70  84 SW7       29.91R
$$

NCZ011-015-027-028-043-044-047-080-103-250300-
NORTHEASTERN NORTH CAROLINA

CITY           SKY/WX    TMP DP  RH WIND       PRES   REMARKS
ROCKY MT-WILSO LGT RAIN  68  66  93 NE7       29.95R
GREENVILLE     CLOUDY    68  66  94 NE8       29.95F
WASHINGTON     CLOUDY    68  66  94 N15G22    29.94R
ELIZABETH CITY RAIN      74  71  91 W9        29.94R FOG
MANTEO         NOT AVBL
CAPE HATTERAS  CLOUDY    75  73  93 W13G20    29.90R
$$

NCZ078-087-090-091-093-098-101-250300-
SOUTHEASTERN NORTH CAROLINA

CITY           SKY/WX    TMP DP  RH WIND       PRES   REMARKS
LUMBERTON      MOCLDY    78  72  81 W7        29.90R
GOLDSBORO      HVY RAIN  70  70 100 N8        29.93R FOG
KINSTON        RAIN      70  68  94 N13G18    29.95R
KENANSVILLE    LGT RAIN  74  72  93 N7        29.93R
NEW BERN       PTCLDY    74  71  91 CALM      29.91R
CHERRY POINT   NOT AVBL
BEAUFORT       PTCLDY    77  73  87 S8        29.89R
JACKSONVILLE   TSTM      75  73  93 VRB7G30   29.90R VSB 1/2
WILMINGTON     TSTM      75  72  90 SE7       29.89R FOG
$$



USA.gov is the U.S. government's official web portal to all federal, state and local government web resources and services.